Location: American Medical Response
(33.3472°N, 96.5511°W)
Time: 21:35:13
(UTC+00:00)

CZ-2C R/B - Visible Passes

Search period start: 27 June 2022 00:00
Search period end: 07 July 2022 00:00
Orbit: 785 x 869 km, 98.2° (Epoch: 27 June)

Date Brightness Start Highest point End Pass type
(mag) Time Alt. Az. Time Alt. Az. Time Alt. Az.
27 Jun 4.6 10:15:08 10° SE 10:19:58 33° ENE 10:24:52 10° N visible
28 Jun 5.3 09:57:19 10° ESE 10:01:27 23° ENE 10:05:40 10° NNE visible
29 Jun 5.6 09:39:58 10° E 09:43:01 15° ENE 09:46:06 10° NNE visible
01 Jul 3.5 10:40:00 10° SSE 10:45:23 59° ENE 10:50:52 10° N visible
02 Jul 4.3 10:21:44 10° SE 10:26:48 39° ENE 10:31:58 10° N visible
03 Jul 5.0 10:03:45 10° SE 10:08:17 27° ENE 10:12:53 10° NNE visible
04 Jul 5.5 09:46:10 10° ESE 09:49:50 18° ENE 09:53:31 10° NNE visible
05 Jul 5.8 09:29:21 10° E 09:31:25 12° ENE 09:33:29 10° NE visible
06 Jul 3.2 10:46:46 10° SSE 10:52:16 71° ENE 10:57:52 10° N visible
